Regional Weather Roundup
Issued by NWS

Home | Current Version | Previous Version | Text Only | Print | Product List | Glossary Off
Versions: 1 2 3 4 5 6 7 8 9 10 11 12 13 14 15 16 17 18 19 20 21 22 23 24 25 26 27 28 29 30 31 32 33 34 35 36 37 38 39 40 41 42 43 44 45 46 47 48 49 50

030
ASUS45 KBOU 102307
RWRCO

WEATHER ROUNDUP FOR COLORADO
NATIONAL WEATHER SERVICE DENVER/BOULDER CO
400 PM MST WED FEB 10 2016

NOTE: "FAIR" INDICATES FEW OR NO CLOUDS BELOW 12000 FEET WITH NO
SIGNIFICANT WEATHER AND/OR OBSTRUCTIONS TO VISIBILITY.

COZ001>005-013-030-031-110000-
...NORTHWEST COLORADO...

CITY           SKY/WX    TMP DP  RH WIND       PRES   REMARKS
CRAIG          CLOUDY    24  19  81 CALM      30.34S
HAYDEN         CLOUDY    30  18  59 E3        30.33S
MEEKER         CLOUDY    38  22  52 NE5       30.33S
MOUNT WERNER   NOT AVBL
STEAMBOAT SPGS CLOUDY    31  17  57 CALM      30.34R
WALDEN         CLOUDY    34  14  44 SW14      30.29F WCI  24
$$

COZ006>008-011-110000-
...WEST CENTRAL VALLEYS...

CITY           SKY/WX    TMP DP  RH WIND       PRES   REMARKS
GRAND JUNCTION SUNNY     36  29  75 N6        30.37S
MONTROSE       SUNNY     46  23  40 N5        30.36F
EAGLE          SUNNY     41  18  38 CALM      30.34F
RIFLE          CLOUDY    39  21  48 SE3       30.35F
DELTA          SUNNY     47  31  54 S3        30.35F
NUCLA          SUNNY     50  23  34 CALM      30.40S
$$

COZ017>023-064>068-110000-
...SOUTHWEST COLORADO...

CITY           SKY/WX    TMP DP  RH WIND       PRES   REMARKS
DURANGO        SUNNY     44  22  41 CALM      30.36S
CORTEZ         CLOUDY    51  24  34 E6        30.37S
PAGOSA SPRINGS SUNNY     50  13  22 S6        30.37F
TELLURIDE      CLOUDY    48   2  15 W13       30.45R
WOLF CREEK PAS SUNNY     36   3  25 SW3       30.53S
$$

COZ009-010-012-014-032>034-037-058>063-110000-
...CENTRAL COLORADO...

CITY           SKY/WX    TMP DP  RH WIND       PRES   REMARKS
ASPEN          CLOUDY    44  14  29 NW5       30.35R
BUENA VISTA    CLOUDY    52  16  24 W15       30.27S
COPPER MTN     CLOUDY    36  -6  17 W30G39    30.43R
BERTHOUD PASS  FAIR      28  18  64 W46G55    30.35F WCI  10
COTTONWOOD PAS CLOUDY    50 -17   6 NW10G23   30.35F
GUNNISON       CLOUDY    16   7  67 NE8       30.47F WCI   5
KREMMLING      CLOUDY    18   7  62 CALM      30.39S
LEADVILLE      CLOUDY    41   3  20 NW20      30.37R
MONARCH PASS   CLOUDY    32   3  29 W28G40    30.54F WCI  18
SALIDA         NOT AVBL
SUNLIGHT       SUNNY     37  14  38 CALM      30.47S
WILKERSON PASS CLOUDY    36   1  23 W10G29    30.40F
$$

COZ069>075-110000-
...SAN LUIS VALLEY/SANGRE DE CRISTO MOUNTAINS...

CITY           SKY/WX    TMP DP  RH WIND       PRES   REMARKS
ALAMOSA        SUNNY     48  16  27 CALM      30.33F
LA VETA PASS   SUNNY     43  10  26 S9        30.38F
SAGUACHE       CLOUDY    46  14  27 CALM      30.35F
$$

COZ035-036-038>040-110000-
...NORTHERN COLORADO FRONT RANGE...

CITY           SKY/WX    TMP DP  RH WIND       PRES   REMARKS
DENVER INTL AP CLOUDY    61  15  16 W16       30.09R
DMNS CITY PARK   N/A     63   7  11 NW8G21    30.10R
AURORA         NOT AVBL
FRONT RANGE AP PTSUNNY   55  21  26 MISG      30.10S
ERIE MUNI ARPT CLOUDY    57  13  17 W9G20     30.09R
BOULDER MUN AP CLOUDY    61  12  15 NW14G22   30.09S
CENTENNIAL     CLOUDY    60  10  14 N8        30.12R
BROOMFIELD     MOSUNNY   63  10  13 W16G24    30.11S
FORT COLLINS   CLOUDY    54  19  26 W13       30.08R
LONGMONT       CLOUDY    59  17  19 W5        30.09R
$$

COZ041-046-047-076>085-087-088-110000-
...PIKES PEAK/PALMER DIVIDE AND SOUTHERN FOOTHILLS...

CITY           SKY/WX    TMP DP  RH WIND       PRES   REMARKS
COLO. SPRINGS  MOSUNNY   58  12  16 W13       30.16R
A. F. ACADEMY  SUNNY     57   9  15 W7        30.16S
SCHRIEVER AFB  FAIR      56  17  22 W8        30.16R
ELLICOTT       SUNNY    N/A N/A N/A W6        30.14S
FALCON         NOT AVBL
FORT CARSON    MOSUNNY   62  16  16 SE8       30.14R
LIMON          SUNNY     44  30  57 N6        30.09S
MONUMENT HILL  SUNNY     46  18  31 W7        30.20S
TRINIDAD       SUNNY     68   1   7 NW20G26   30.15S
$$

COZ042>045-048>051-090-091-110000-
...NORTHEAST COLORADO...

CITY           SKY/WX    TMP DP  RH WIND       PRES   REMARKS
GREELEY ARPT   CLOUDY    55  23  28 W5        30.06R
AKRON          CLOUDY    51  31  46 W8        30.05R
BURLINGTON     SUNNY     49  31  49 W8        30.04S
WRAY           NOT AVBL
STERLING       CLOUDY    59  30  33 N14       30.02R
HOLYOKE        SUNNY     59  30  33 NW10      30.03R
FORT MORGAN    CLOUDY    57  30  36 S5        30.06R
$$

COZ086-089-092>099-110000-
...SOUTHEAST COLORADO...

CITY           SKY/WX    TMP DP  RH WIND       PRES   REMARKS
PUEBLO         SUNNY     75   5   6 NW15      30.07F
LA JUNTA       SUNNY     75  14  10 NW10      30.05F
LAMAR          SUNNY     74  19  12 W14       30.01F
SPRINGFIELD      N/A     73   5   7 W10       30.07S
$$




USA.gov is the U.S. government's official web portal to all federal, state and local government web resources and services.